Time,TemperatureF,DewpointF,PressureIn,WindDirection,WindDirectionDegrees,WindSpeedMPH,WindSpeedGustMPH,Humidity,HourlyPrecipIn,Conditions,Clouds,dailyrainin,SoftwareType,DateUTC
2013-03-01 00:01:00,30.0,6.0,-100.00,NNE,28,-999.0,1.0,34,-99.99,,,-99.99,,2013-03-01 07:01:00,
2013-03-01 00:11:00,31.0,7.0,-100.00,NNE,28,-999.0,1.0,34,-99.99,,,-99.99,,2013-03-01 07:11:00,
2013-03-01 00:22:00,30.0,6.0,-100.00,NNE,28,-999.0,4.0,34,-99.99,,,-99.99,,2013-03-01 07:22:00,
2013-03-01 00:32:00,30.0,6.0,-100.00,NNE,28,-999.0,4.0,34,-99.99,,,-99.99,,2013-03-01 07:32:00,
2013-03-01 00:42:00,30.0,6.0,-100.00,NNE,28,-999.0,4.0,34,-99.99,,,-99.99,,2013-03-01 07:42:00,
2013-03-01 00:51:00,31.0,7.0,-100.00,NNE,28,-999.0,5.0,34,-99.99,,,-99.99,,2013-03-01 07:51:00,
2013-03-01 01:01:00,31.0,7.0,-100.00,NNE,28,-999.0,9.0,34,-99.99,,,-99.99,,2013-03-01 08:01:00,
2013-03-01 01:11:00,30.0,6.0,-100.00,NNE,28,-999.0,9.0,36,-99.99,,,-99.99,,2013-03-01 08:11:00,
2013-03-01 01:22:00,31.0,5.0,-100.00,NNE,28,-999.0,4.0,33,-99.99,,,-99.99,,2013-03-01 08:22:00,
2013-03-01 01:32:00,31.0,5.0,-100.00,NNE,28,-999.0,4.0,33,-99.99,,,-99.99,,2013-03-01 08:32:00,
2013-03-01 01:42:00,30.0,4.0,-100.00,NNE,28,-999.0,4.0,33,-99.99,,,-99.99,,2013-03-01 08:42:00,
2013-03-01 01:52:00,30.0,4.0,-100.00,NNE,28,-999.0,2.0,33,-99.99,,,-99.99,,2013-03-01 08:52:00,
2013-03-01 02:02:00,30.0,4.0,-100.00,WNW,296,0.0,4.0,33,-99.99,,,-99.99,,2013-03-01 09:02:00,
2013-03-01 02:11:00,31.0,5.0,-100.00,WNW,296,0.0,4.0,33,-99.99,,,-99.99,,2013-03-01 09:11:00,
2013-03-01 02:22:00,29.0,4.0,-100.00,WNW,296,0.0,8.0,31,-99.99,,,-99.99,,2013-03-01 09:22:00,
2013-03-01 02:32:00,29.0,4.0,-100.00,WNW,296,0.0,8.0,31,-99.99,,,-99.99,,2013-03-01 09:32:00,
2013-03-01 02:42:00,30.0,5.0,-100.00,WNW,296,0.0,8.0,31,-99.99,,,-99.99,,2013-03-01 09:42:00,
2013-03-01 02:52:00,31.0,3.0,-100.00,WNW,296,0.0,5.0,27,-99.99,,,-99.99,,2013-03-01 09:52:00,
2013-03-01 03:02:00,31.0,3.0,-100.00,WNW,296,0.0,5.0,27,-99.99,,,-99.99,,2013-03-01 10:02:00,
2013-03-01 03:11:00,29.0,3.0,-100.00,WNW,296,0.0,5.0,30,-99.99,,,-99.99,,2013-03-01 10:11:00,
2013-03-01 03:21:00,25.0,8.0,-100.00,WNW,296,0.0,5.0,48,-99.99,,,-99.99,,2013-03-01 10:21:00,
2013-03-01 03:32:00,25.0,8.0,-100.00,WNW,296,0.0,5.0,48,-99.99,,,-99.99,,2013-03-01 10:32:00,
2013-03-01 03:42:00,24.0,10.0,-100.00,WNW,296,0.0,5.0,55,-99.99,,,-99.99,,2013-03-01 10:42:00,
2013-03-01 03:52:00,23.0,9.0,-100.00,WNW,296,0.0,-999.0,55,-99.99,,,-99.99,,2013-03-01 10:52:00,
2013-03-01 04:01:00,23.0,9.0,-100.00,WNW,296,0.0,5.0,55,-99.99,,,-99.99,,2013-03-01 11:01:00,
2013-03-01 04:11:00,23.0,9.0,-100.00,WNW,296,-999.0,5.0,55,-99.99,,,-99.99,,2013-03-01 11:11:00,
2013-03-01 04:22:00,21.0,7.0,-100.00,WNW,296,-999.0,5.0,55,-99.99,,,-99.99,,2013-03-01 11:22:00,
2013-03-01 04:32:00,21.0,7.0,-100.00,WNW,296,-999.0,5.0,55,-99.99,,,-99.99,,2013-03-01 11:32:00,
2013-03-01 04:42:00,20.0,6.0,-100.00,WNW,296,-999.0,5.0,55,-99.99,,,-99.99,,2013-03-01 11:42:00,
2013-03-01 04:52:00,19.0,11.0,-100.00,WNW,296,-999.0,5.0,70,-99.99,,,-99.99,,2013-03-01 11:52:00,
2013-03-01 05:01:00,19.0,11.0,-100.00,WNW,296,-999.0,5.0,70,-99.99,,,-99.99,,2013-03-01 12:01:00,
2013-03-01 05:11:00,18.0,10.0,-100.00,WNW,296,-999.0,-999.0,72,-99.99,,,-99.99,,2013-03-01 12:11:00,
2013-03-01 05:21:00,17.0,9.0,-100.00,WNW,296,-999.0,-999.0,72,-99.99,,,-99.99,,2013-03-01 12:21:00,
2013-03-01 05:32:00,17.0,9.0,-100.00,WNW,296,-999.0,-999.0,72,-99.99,,,-99.99,,2013-03-01 12:32:00,
2013-03-01 05:42:00,16.0,8.0,-100.00,WNW,296,-999.0,-999.0,72,-99.99,,,-99.99,,2013-03-01 12:42:00,
2013-03-01 05:52:00,16.0,8.0,-100.00,WNW,296,-999.0,-999.0,72,-99.99,,,-99.99,,2013-03-01 12:52:00,
2013-03-01 06:01:00,16.0,8.0,-100.00,WNW,296,-999.0,-999.0,72,-99.99,,,-99.99,,2013-03-01 13:01:00,
2013-03-01 06:11:00,17.0,9.0,-100.00,WNW,296,-999.0,-999.0,71,-99.99,,,-99.99,,2013-03-01 13:11:00,
2013-03-01 06:21:00,17.0,7.0,-100.00,WNW,296,-999.0,-999.0,66,-99.99,,,-99.99,,2013-03-01 13:21:00,
2013-03-01 06:32:00,17.0,7.0,-100.00,WNW,296,-999.0,-999.0,66,-99.99,,,-99.99,,2013-03-01 13:32:00,
2013-03-01 06:41:00,17.0,7.0,-100.00,WNW,296,-999.0,-999.0,66,-99.99,,,-99.99,,2013-03-01 13:41:00,
2013-03-01 06:51:00,18.0,8.0,-100.00,WNW,296,-999.0,-999.0,66,-99.99,,,-99.99,,2013-03-01 13:51:00,
2013-03-01 07:01:00,18.0,8.0,-100.00,WNW,296,-999.0,-999.0,66,-99.99,,,-99.99,,2013-03-01 14:01:00,
2013-03-01 07:11:00,18.0,8.0,-100.00,WNW,296,-999.0,-999.0,66,-99.99,,,-99.99,,2013-03-01 14:11:00,
2013-03-01 07:21:00,18.0,8.0,-100.00,WNW,296,-999.0,-999.0,64,-99.99,,,-99.99,,2013-03-01 14:21:00,
2013-03-01 07:32:00,18.0,8.0,-100.00,WNW,296,-999.0,-999.0,64,-99.99,,,-99.99,,2013-03-01 14:32:00,
2013-03-01 07:41:00,20.0,9.0,-100.00,WNW,296,-999.0,-999.0,64,-99.99,,,-99.99,,2013-03-01 14:41:00,
2013-03-01 07:52:00,26.0,9.0,-100.00,WNW,296,-999.0,-999.0,49,-99.99,,,-99.99,,2013-03-01 14:52:00,
2013-03-01 08:01:00,26.0,9.0,-100.00,WNW,296,-999.0,-999.0,49,-99.99,,,-99.99,,2013-03-01 15:01:00,
2013-03-01 08:11:00,27.0,10.0,-100.00,WNW,296,-999.0,-999.0,49,-99.99,,,-99.99,,2013-03-01 15:11:00,
2013-03-01 08:21:00,27.0,10.0,-100.00,WNW,296,-999.0,-999.0,49,-99.99,,,-99.99,,2013-03-01 15:21:00,
2013-03-01 08:31:00,29.0,11.0,-100.00,WNW,296,-999.0,-999.0,45,-99.99,,,-99.99,,2013-03-01 15:31:00,
2013-03-01 08:42:00,28.0,10.0,-100.00,WNW,296,-999.0,-999.0,45,-99.99,,,-99.99,,2013-03-01 15:42:00,
2013-03-01 08:52:00,27.0,9.0,-100.00,WNW,296,-999.0,-999.0,45,-99.99,,,-99.99,,2013-03-01 15:52:00,
2013-03-01 09:01:00,27.0,9.0,-100.00,WNW,296,-999.0,-999.0,45,-99.99,,,-99.99,,2013-03-01 16:01:00,
2013-03-01 09:11:00,32.0,13.0,-100.00,WNW,296,-999.0,-999.0,45,-99.99,,,-99.99,,2013-03-01 16:11:00,
2013-03-01 09:21:00,31.0,12.0,-100.00,WNW,296,-999.0,-999.0,45,-99.99,,,-99.99,,2013-03-01 16:21:00,
2013-03-01 09:32:00,31.0,12.0,-100.00,WNW,296,-999.0,6.0,45,-99.99,,,-99.99,,2013-03-01 16:32:00,
2013-03-01 09:41:00,33.0,14.0,-100.00,WNW,296,-999.0,6.0,45,-99.99,,,-99.99,,2013-03-01 16:41:00,
2013-03-01 09:51:00,34.0,15.0,-100.00,ESE,120,0.0,8.0,45,-99.99,,,-99.99,,2013-03-01 16:51:00,
2013-03-01 10:01:00,34.0,15.0,-100.00,ESE,120,0.0,8.0,45,-99.99,,,-99.99,,2013-03-01 17:01:00,
2013-03-01 10:11:00,36.0,14.0,-100.00,ESE,120,0.0,8.0,39,-99.99,,,-99.99,,2013-03-01 17:11:00,
2013-03-01 10:21:00,38.0,16.0,-100.00,SE,137,3.0,10.0,39,-99.99,,,-99.99,,2013-03-01 17:21:00,
2013-03-01 10:31:00,38.0,16.0,-100.00,SE,137,3.0,9.0,39,-99.99,,,-99.99,,2013-03-01 17:31:00,
2013-03-01 10:41:00,39.0,16.0,-100.00,SE,137,3.0,9.0,38,-99.99,,,-99.99,,2013-03-01 17:41:00,
2013-03-01 10:52:00,39.0,16.0,-100.00,SE,137,3.0,6.0,38,-99.99,,,-99.99,,2013-03-01 17:52:00,
2013-03-01 11:01:00,39.0,16.0,-100.00,SE,137,3.0,6.0,38,-99.99,,,-99.99,,2013-03-01 18:01:00,
2013-03-01 11:12:00,39.0,16.0,-100.00,SE,137,3.0,6.0,38,-99.99,,,-99.99,,2013-03-01 18:12:00,
2013-03-01 11:22:00,38.0,16.0,-100.00,SE,137,3.0,3.0,40,-99.99,,,-99.99,,2013-03-01 18:22:00,
2013-03-01 11:31:00,38.0,16.0,-100.00,SE,137,3.0,6.0,40,-99.99,,,-99.99,,2013-03-01 18:31:00,
2013-03-01 11:41:00,39.0,17.0,-100.00,SE,137,3.0,6.0,40,-99.99,,,-99.99,,2013-03-01 18:41:00,
2013-03-01 11:52:00,39.0,17.0,-100.00,SE,142,1.0,5.0,40,-99.99,,,-99.99,,2013-03-01 18:52:00,
2013-03-01 12:01:00,39.0,17.0,-100.00,SE,142,1.0,6.0,40,-99.99,,,-99.99,,2013-03-01 19:01:00,
2013-03-01 12:11:00,39.0,18.0,-100.00,SE,142,1.0,6.0,41,-99.99,,,-99.99,,2013-03-01 19:11:00,
2013-03-01 12:21:00,39.0,18.0,-100.00,SE,142,1.0,1.0,41,-99.99,,,-99.99,,2013-03-01 19:21:00,
2013-03-01 12:31:00,39.0,18.0,-100.00,SE,142,1.0,3.0,41,-99.99,,,-99.99,,2013-03-01 19:31:00,
2013-03-01 12:42:00,40.0,18.0,-100.00,SE,142,1.0,3.0,40,-99.99,,,-99.99,,2013-03-01 19:42:00,
2013-03-01 12:51:00,39.0,17.0,-100.00,SE,142,1.0,3.0,40,-99.99,,,-99.99,,2013-03-01 19:51:00,
2013-03-01 13:01:00,39.0,17.0,-100.00,SE,142,1.0,4.0,40,-99.99,,,-99.99,,2013-03-01 20:01:00,
2013-03-01 13:11:00,40.0,18.0,-100.00,SE,142,1.0,4.0,40,-99.99,,,-99.99,,2013-03-01 20:11:00,
2013-03-01 13:21:00,38.0,18.0,-100.00,SE,142,1.0,5.0,45,-99.99,,,-99.99,,2013-03-01 20:21:00,
2013-03-01 13:31:00,38.0,18.0,-100.00,SE,142,1.0,7.0,45,-99.99,,,-99.99,,2013-03-01 20:31:00,
2013-03-01 13:41:00,39.0,19.0,-100.00,SE,142,1.0,7.0,45,-99.99,,,-99.99,,2013-03-01 20:41:00,
2013-03-01 13:52:00,39.0,19.0,-100.00,SE,142,-999.0,3.0,45,-99.99,,,-99.99,,2013-03-01 20:52:00,
2013-03-01 14:01:00,39.0,19.0,-100.00,SE,142,-999.0,6.0,45,-99.99,,,-99.99,,2013-03-01 21:01:00,
2013-03-01 14:11:00,40.0,20.0,-100.00,SE,142,-999.0,6.0,45,-99.99,,,-99.99,,2013-03-01 21:11:00,
2013-03-01 14:21:00,44.0,20.0,-100.00,SE,142,-999.0,1.0,38,-99.99,,,-99.99,,2013-03-01 21:21:00,
2013-03-01 14:31:00,44.0,20.0,-100.00,SE,142,-999.0,6.0,38,-99.99,,,-99.99,,2013-03-01 21:31:00,
2013-03-01 14:41:00,46.0,20.0,-100.00,WNW,296,0.0,6.0,34,-99.99,,,-99.99,,2013-03-01 21:41:00,
2013-03-01 14:51:00,47.0,21.0,-100.00,WNW,296,0.0,11.0,34,-99.99,,,-99.99,,2013-03-01 21:51:00,
2013-03-01 15:01:00,47.0,21.0,-100.00,West,274,3.0,10.0,34,-99.99,,,-99.99,,2013-03-01 22:01:00,
2013-03-01 15:11:00,47.0,21.0,-100.00,West,274,3.0,10.0,34,-99.99,,,-99.99,,2013-03-01 22:11:00,
2013-03-01 15:21:00,43.0,18.0,-100.00,West,274,3.0,9.0,34,-99.99,,,-99.99,,2013-03-01 22:21:00,
2013-03-01 15:31:00,43.0,18.0,-100.00,WNW,291,3.0,9.0,34,-99.99,,,-99.99,,2013-03-01 22:31:00,
2013-03-01 15:41:00,42.0,17.0,-100.00,WNW,291,3.0,9.0,34,-99.99,,,-99.99,,2013-03-01 22:41:00,
2013-03-01 15:51:00,42.0,17.0,-100.00,WNW,291,3.0,9.0,34,-99.99,,,-99.99,,2013-03-01 22:51:00,
2013-03-01 16:01:00,42.0,17.0,-100.00,WNW,291,3.0,7.0,34,-99.99,,,-99.99,,2013-03-01 23:01:00,
2013-03-01 16:11:00,42.0,20.0,-100.00,WNW,291,3.0,7.0,40,-99.99,,,-99.99,,2013-03-01 23:11:00,
2013-03-01 16:21:00,42.0,22.0,-100.00,North,0,2.0,8.0,44,-99.99,,,-99.99,,2013-03-01 23:21:00,
2013-03-01 16:31:00,42.0,22.0,-100.00,North,0,2.0,7.0,44,-99.99,,,-99.99,,2013-03-01 23:31:00,
2013-03-01 16:41:00,41.0,21.0,-100.00,North,0,2.0,7.0,44,-99.99,,,-99.99,,2013-03-01 23:41:00,
2013-03-01 16:52:00,41.0,22.0,-100.00,North,0,2.0,5.0,45,-99.99,,,-99.99,,2013-03-01 23:52:00,
2013-03-01 17:01:00,41.0,22.0,-100.00,North,0,2.0,4.0,45,-99.99,,,-99.99,,2013-03-02 00:01:00,
2013-03-01 17:11:00,41.0,22.0,-100.00,North,0,2.0,4.0,45,-99.99,,,-99.99,,2013-03-02 00:11:00,
2013-03-01 17:21:00,41.0,20.0,-100.00,North,0,2.0,2.0,42,-99.99,,,-99.99,,2013-03-02 00:21:00,
2013-03-01 17:31:00,41.0,20.0,-100.00,North,0,2.0,5.0,42,-99.99,,,-99.99,,2013-03-02 00:31:00,
2013-03-01 17:42:00,40.0,19.0,-100.00,North,0,2.0,5.0,42,-99.99,,,-99.99,,2013-03-02 00:42:00,
2013-03-01 17:52:00,38.0,17.0,-100.00,North,0,2.0,5.0,42,-99.99,,,-99.99,,2013-03-02 00:52:00,
2013-03-01 18:01:00,38.0,17.0,-100.00,North,0,2.0,2.0,42,-99.99,,,-99.99,,2013-03-02 01:01:00,
2013-03-01 18:11:00,38.0,21.0,-100.00,North,0,2.0,2.0,51,-99.99,,,-99.99,,2013-03-02 01:11:00,
2013-03-01 18:21:00,37.0,20.0,-100.00,North,0,-999.0,2.0,51,-99.99,,,-99.99,,2013-03-02 01:21:00,
2013-03-01 18:31:00,37.0,20.0,-100.00,North,0,-999.0,2.0,51,-99.99,,,-99.99,,2013-03-02 01:31:00,
2013-03-01 18:41:00,37.0,20.0,-100.00,North,0,-999.0,2.0,51,-99.99,,,-99.99,,2013-03-02 01:41:00,
2013-03-01 18:51:00,37.0,20.0,-100.00,North,0,-999.0,3.0,50,-99.99,,,-99.99,,2013-03-02 01:51:00,
2013-03-01 19:01:00,37.0,20.0,-100.00,North,0,-999.0,3.0,50,-99.99,,,-99.99,,2013-03-02 02:01:00,
2013-03-01 19:11:00,37.0,20.0,-100.00,North,0,-999.0,3.0,50,-99.99,,,-99.99,,2013-03-02 02:11:00,
2013-03-01 19:21:00,37.0,20.0,-100.00,North,0,-999.0,3.0,50,-99.99,,,-99.99,,2013-03-02 02:21:00,
2013-03-01 19:32:00,34.0,23.0,-100.00,North,0,-999.0,6.0,56,-99.99,,,-99.99,,2013-03-02 02:32:00,
2013-03-01 19:41:00,34.0,20.0,-100.00,North,0,-999.0,6.0,56,-99.99,,,-99.99,,2013-03-02 02:41:00,
2013-03-01 19:52:00,33.0,20.0,-100.00,North,0,-999.0,6.0,59,-99.99,,,-99.99,,2013-03-02 02:52:00,
2013-03-01 20:01:00,33.0,20.0,-100.00,North,0,-999.0,6.0,59,-99.99,,,-99.99,,2013-03-02 03:01:00,
2013-03-01 20:11:00,32.0,22.0,-100.00,North,0,-999.0,6.0,66,-99.99,,,-99.99,,2013-03-02 03:11:00,
2013-03-01 20:41:00,30.0,20.0,-100.00,North,0,-999.0,-999.0,69,-99.99,,,-99.99,,2013-03-02 03:41:00,
2013-03-01 20:52:00,30.0,20.0,-100.00,North,0,-999.0,-999.0,69,-99.99,,,-99.99,,2013-03-02 03:52:00,
2013-03-01 21:01:00,30.0,20.0,-100.00,North,0,-999.0,-999.0,69,-99.99,,,-99.99,,2013-03-02 04:01:00,
2013-03-01 21:11:00,33.0,23.0,-100.00,North,0,-999.0,-999.0,69,-99.99,,,-99.99,,2013-03-02 04:11:00,
2013-03-01 21:21:00,37.0,27.0,-100.00,North,0,-999.0,-999.0,69,-99.99,,,-99.99,,2013-03-02 04:21:00,
2013-03-01 21:32:00,37.0,27.0,-100.00,North,0,-999.0,5.0,69,-99.99,,,-99.99,,2013-03-02 04:32:00,
2013-03-01 22:52:00,38.0,-56.0,-100.00,WNW,291,0.0,8.0,0,-99.99,,,-99.99,,2013-03-02 05:52:00,
2013-03-01 23:01:00,38.0,-56.0,-100.00,WNW,291,0.0,7.0,0,-99.99,,,-99.99,,2013-03-02 06:01:00,
2013-03-01 23:11:00,36.0,19.0,-100.00,WNW,291,0.0,7.0,50,-99.99,,,-99.99,,2013-03-02 06:11:00,
2013-03-01 23:21:00,34.0,-58.0,-100.00,WNW,291,0.0,7.0,0,-99.99,,,-99.99,,2013-03-02 06:21:00,
2013-03-01 23:31:00,34.0,-58.0,-100.00,WNW,291,0.0,7.0,0,-99.99,,,-99.99,,2013-03-02 06:31:00,
2013-03-01 23:41:00,32.0,-59.0,-100.00,WNW,291,0.0,7.0,0,-99.99,,,-99.99,,2013-03-02 06:41:00,